Regional Weather Roundup
Issued by NWS

Home | Current Version | Previous Version | Graphics & Text | Print | Product List | Glossary On
Versions: 1 2 3 4 5 6 7 8 9 10 11 12 13 14 15 16 17 18 19 20 21 22 23 24 25 26 27 28 29 30 31 32 33 34 35 36 37 38 39 40 41 42 43 44 45 46 47 48 49 50
000
ASUS45 KABQ 240510
RWRNM
NEW MEXICO REGIONAL WEATHER ROUNDUP
NATIONAL WEATHER SERVICE ALBUQUERQUE NM
1100 PM MDT TUE MAY 23 2017

NOTE: "FAIR" MEANS FEW OR NO CLOUDS BELOW 12,000 FEET AGL WITH NO
       SIGNIFICANT WEATHER OR OBSTRUCTIONS TO VISION.

      THIS PRODUCT IS RELEASED AS TWO VERSIONS.  ONE VERSION NEAR
      THE TOP OF THE HOUR CONTAINING PRELIMINARY DATA FROM ALBUQUERQUE
      AND OTHER STATIONS.  A FINAL VERSION WITH ADDITIONAL DATA IS
      ISSUED ABOUT 10 MINUTES AFTER THE HOUR.

NMZ501-503-504-510>518-240600-
NORTHWEST PLATEAU/NORTHCENTRAL MOUNTAINS

CITY           SKY/WX    TMP DP  RH WIND       PRES   REMARKS
FARMINGTON     FAIR      58  23  26 N8        30.09S
LOS ALAMOS     FAIR      55  23  28 S10       30.17R
SANTA FE       FAIR      53  36  52 SE16      30.14R
TAOS           FAIR      46  25  42 S6        30.16S
ANGEL FIRE     FAIR      36  32  85 CALM      30.24S

$$
NMZ402-403-502-505>509-240600-
WESTCENTRAL MOUNTAINS/SOUTHWEST MOUNTAINS

CITY           SKY/WX    TMP DP  RH WIND       PRES   REMARKS
GALLUP         FAIR      50  25  37 CALM      30.19S
GRANTS         FAIR      53  22  30 N8        30.18S

$$
NMZ407-409-411-412-240600-
SOUTHERN DESERTS

CITY           SKY/WX    TMP DP  RH WIND       PRES   REMARKS
DEMING         FAIR      71  36  27 NE15      30.00R
LAS CRUCES     FAIR      67  37  32 SE8       30.03R
HOLLOMAN AFB   FAIR      65  37  34 CALM      30.06R
ALAMOGORDO     FAIR      64  36  34 N5        30.03R
T OR C         FAIR      70  35  27 NE3       30.04R

$$
NMZ519>523-240600-
CENTRAL VALLEYS/CENTRAL HIGHLANDS

CITY           SKY/WX    TMP DP  RH WIND       PRES   REMARKS
ALBUQUERQUE    FAIR      68  21  16 NW8       30.09R
MORIARTY ARPT  FAIR      54  34  47 SE8       30.17R
CLINES CORNERS FAIR      45  31  58 SE12      30.20S
BELEN          FAIR      61  20  20 N5        30.08S
SOCORRO        FAIR      65  15  14 CALM      30.06R

$$
NMZ524>526-539-540-240600-
SOUTHCENTRAL MOUNTAINS

CITY           SKY/WX    TMP DP  RH WIND       PRES   REMARKS
RUIDOSO        FAIR      45  30  57 SE5       30.22S

$$
NMZ527>531-240600-
NORTHEAST HIGHLANDS/NORTHEAST PLAINS

CITY           SKY/WX    TMP DP  RH WIND       PRES   REMARKS
LAS VEGAS      FAIR      40  32  73 S8        30.20R WCI  34
RATON          FAIR      45  32  60 S3        30.15S
CLAYTON        FAIR      42  36  79 W10       30.10S

$$
NMZ532>537-240600-
EASTCENTRAL PLAINS

CITY           SKY/WX    TMP DP  RH WIND       PRES   REMARKS
SANTA ROSA     FAIR      49  37  63 E5        30.13S
TUCUMCARI      MOCLDY    54  44  69 SW3       30.08R
CANNON AFB     FAIR      50  43  76 NE5       30.11S
CLOVIS AIRPORT CLOUDY    54  37  54 N5        30.10S

$$
NMZ028-029-538-240600-
SOUTHEAST PLAINS

CITY           SKY/WX    TMP DP  RH WIND       PRES   REMARKS
ROSWELL        FAIR      58  32  37 W6        30.08R
ARTESIA        FAIR      57  32  38 CALM      30.09R
CARLSBAD       FAIR      58  44  60 S7        30.06R
HOBBS          FAIR      54  34  47 CALM      30.10R


$$




USA.gov is the U.S. government's official web portal to all federal, state and local government web resources and services.